Temperature
0 1 1 1 1 1 1 1 1 2 2 3 3 2 3 3 3 3 3 3 3 3 3 3 3 3 3 3 3 3 4 4 4 4 4 4 4 4 3 3 3 3 3 3
-0 1 1 1 1 1 1 1 1 2 2 3 3 3 2 2 2 2 2 3 3 3 3 3 3 3 2 3 3 3 3 3 3 3 3 3 3 3 3 3 3 3 3 3
-1 -1 -0 0 1 1 1 1 1 2 2 2 2 2 2 2 2 2 2 2 2 2 2 2 2 2 2 2 3 3 3 3 3 3 3 3 3 3 3 3 3 3 3 2
-2 -2 -1 1 1 1 1 1 1 1 1 1 2 2 3 3 3 2 2 2 2 2 2 2 2 2 2 2 2 2 3 3 3 3 2 2 2 2 2 2 2 2 2 2
-2 -2 -1 1 1 0 0 1 0 0 1 1 2 1 1 2 3 2 2 2 2 2 2 2 2 2 2 2 2 2 2 2 2 2 2 2 2 2 2 2 2 2 2 2
-3 -1 -1 1 1 1 1 0 1 0 0 0 1 -0 0 2 2 2 2 2 1 1 1 1 1 1 1 1 2 2 2 2 2 2 2 1 2 2 1 1 1 1 1 1
-3 -2 -1 0 1 1 0 1 1 1 1 1 -0 1 1 2 1 1 1 1 1 1 1 1 1 1 1 1 1 1 1 1 1 1 1 1 1 1 1 1 1 1 1 1
-3 -2 -1 0 -0 -0 0 1 1 1 1 1 1 1 1 1 1 1 1 1 1 1 1 1 1 1 1 1 1 1 1 1 1 1 1 1 0 0 0 0 0 0 0 0
-2 -1 0 1 1 1 1 1 1 1 1 0 0 0 0 0 0 0 0 0 0 0 0 0 0 0 0 0 0 0 -0 0 0 0 -0 -0 -0 -0 -0 -0 -0 -0 -1 -1
-3 -2 -1 0 1 1 1 1 1 0 0 -0 -0 -0 -0 -0 -0 -1 -1 -0 -0 -0 -0 -0 -0 -0 -0 -0 -1 -1 -1 -1 -0 -0 -1 -1 -0 -0 -1 -1 -1 -1 -1 -1
-3 -2 -1 -0 1 1 0 0 0 0 -0 -1 -1 -1 -1 -1 -1 -1 -1 -1 -1 -1 -1 -1 -1 -1 -1 -1 -1 -1 -1 -1 -1 -1 -1 -1 -1 -1 -1 -1 -1 -1 -1 -1
-2 -1 -2 -1 0 0 -0 -1 -1 -1 -1 -1 -1 -1 -1 -1 -1 -2 -2 -2 -2 -2 -2 -1 -1 -1 -1 -1 -1 -1 -1 -2 -2 -2 -1 -1 -1 -1 -1 -1 -2 -2 -2 -2
-0 0 -0 -0 -0 -0 -1 -1 -1 -1 -1 -1 -2 -2 -2 -2 -2 -2 -2 -2 -2 -2 -2 -2 -2 -2 -2 -2 -2 -2 -2 -2 -2 -2 -2 -2 -2 -2 -2 -2 -2 -2 -2 -2
-1 -1 -1 -1 -1 -1 -1 -1 -2 -2 -2 -2 -2 -2 -2 -2 -2 -2 -2 -3 -3 -3 -3 -3 -2 -2 -2 -2 -2 -2 -2 -2 -2 -2 -2 -2 -2 -2 -2 -3 -3 -3 -3 -3
-1 -1 -1 -1 -1 -2 -2 -2 -2 -2 -2 -2 -3 -3 -3 -3 -3 -3 -3 -3 -3 -3 -3 -3 -3 -3 -3 -3 -3 -3 -3 -3 -3 -3 -3 -3 -3 -3 -3 -3 -3 -3 -3 -3
-2 -2 -2 -2 -2 -2 -2 -3 -3 -3 -3 -3 -3 -3 -3 -3 -3 -3 -3 -3 -3 -3 -3 -3 -3 -3 -3 -3 -3 -3 -3 -3 -3 -3 -3 -3 -3 -3 -3 -3 -4 -4 -4 -3
-3 -3 -3 -3 -3 -3 -3 -3 -3 -3 -3 -4 -4 -4 -4 -4 -4 -4 -4 -4 -4 -4 -4 -4 -3 -3 -4 -4 -4 -3 -3 -3 -4 -4 -4 -4 -4 -4 -4 -4 -4 -4 -4 -4
-2 -2 -2 -2 -3 -3 -3 -3 -4 -4 -4 -4 -4 -4 -4 -4 -4 -4 -4 -4 -4 -4 -4 -4 -4 -4 -4 -4 -4 -4 -4 -4 -4 -4 -4 -4 -4 -4 -4 -4 -4 -5 -4 -4
-3 -3 -3 -3 -3 -3 -4 -4 -4 -4 -4 -4 -4 -5 -5 -5 -5 -5 -5 -5 -4 -4 -4 -4 -4 -4 -4 -4 -4 -4 -4 -4 -4 -4 -5 -5 -5 -5 -5 -5 -5 -5 -5 -5
-3 -3 -3 -3 -3 -4 -4 -4 -4 -4 -5 -5 -5 -5 -5 -5 -5 -5 -5 -5 -5 -5 -5 -5 -5 -5 -5 -5 -5 -5 -5 -5 -5 -5 -5 -5 -5 -5 -5 -5 -5 -5 -5 -5
-3 -3 -3 -4 -4 -4 -4 -4 -5 -5 -5 -5 -5 -5 -5 -5 -5 -5 -5 -5 -5 -5 -5 -5 -5 -5 -5 -5 -5 -5 -5 -5 -5 -5 -5 -6 -6 -6 -6 -6 -6 -6 -6 -6
-4 -4 -4 -4 -4 -4 -5 -5 -5 -5 -5 -5 -5 -6 -6 -6 -6 -5 -5 -5 -5 -5 -5 -5 -5 -5 -5 -5 -5 -5 -6 -6 -6 -6 -6 -6 -6 -6 -6 -6 -6 -6 -6 -6
-4 -4 -4 -5 -5 -5 -5 -5 -5 -5 -6 -6 -6 -6 -6 -6 -6 -6 -6 -6 -6 -6 -6 -6 -6 -6 -6 -6 -6 -6 -6 -6 -6 -6 -6 -6 -6 -6 -6 -7 -7 -7 -6 -6
-5 -5 -5 -5 -5 -5 -5 -6 -6 -6 -6 -6 -6 -6 -6 -6 -6 -6 -6 -6 -6 -6 -6 -6 -6 -6 -6 -6 -6 -6 -6 -6 -7 -7 -7 -7 -7 -7 -7 -7 -7 -7 -7 -7
-5 -5 -5 -5 -6 -6 -6 -6 -6 -6 -6 -6 -6 -7 -7 -7 -7 -6 -6 -6 -6 -6 -6 -6 -6 -6 -6 -7 -7 -7 -7 -7 -7 -7 -7 -7 -7 -7 -7 -7 -7 -7 -7 -7
-6 -6 -6 -6 -6 -6 -6 -6 -7 -7 -7 -7 -7 -7 -7 -7 -7 -7 -7 -7 -7 -7 -7 -7 -7 -7 -7 -7 -7 -7 -7 -7 -7 -7 -7 -7 -8 -8 -8 -8 -8 -8 -7 -7
-6 -6 -6 -6 -6 -6 -7 -7 -7 -7 -7 -7 -7 -7 -7 -7 -7 -7 -7 -7 -7 -7 -7 -7 -7 -7 -7 -7 -7 -7 -7 -7 -8 -8 -8 -8 -8 -8 -8 -8 -8 -8 -8 -8
Wind_Speed
7 7 5 7 8 7 8 9 9 10 11 13 9 7 6 5 4 3 3 2 2 3 3 2 2 1 1 2 2 2 2 3 4 4 3 3 3 3 3 3 4 4 4 4
5 6 5 8 10 10 10 9 10 10 13 10 6 4 5 5 4 4 4 4 3 3 3 3 3 3 2 2 2 2 3 3 3 3 3 3 3 3 3 3 3 3 4 4
4 4 3 7 9 9 7 7 8 12 13 7 5 6 6 6 5 5 5 4 4 4 4 4 4 3 3 3 2 2 3 3 3 3 3 3 3 3 3 3 3 3 3 4
2 1 6 8 3 6 8 9 9 8 8 6 7 7 6 5 5 5 5 5 5 4 4 3 3 3 3 2 2 2 2 3 3 3 3 2 3 3 3 3 3 3 3 4
2 3 7 8 4 3 5 7 7 8 7 5 4 2 3 4 4 5 5 5 4 4 4 3 3 3 2 2 2 2 3 3 4 4 4 3 3 3 3 3 3 3 3 3
3 3 6 7 4 2 1 6 5 6 6 5 1 3 5 4 3 3 3 3 3 3 2 3 3 2 2 3 3 3 4 4 3 4 4 4 4 3 2 3 3 3 3 3
6 6 8 7 3 2 3 6 3 4 5 4 5 6 5 3 3 3 2 2 2 2 2 3 3 3 3 3 4 4 3 3 3 3 4 4 3 3 3 3 2 2 3 3
5 6 8 4 3 5 7 3 3 3 4 5 5 5 4 3 3 2 2 2 1 2 2 2 2 3 4 4 4 2 2 2 2 3 3 3 3 2 3 3 3 3 2 3
8 8 5 4 6 5 3 3 3 3 4 4 5 5 4 3 3 2 2 2 2 2 2 2 2 3 4 4 2 2 2 2 2 2 2 2 3 3 3 3 3 3 3 3
5 8 6 5 4 4 4 4 4 4 5 4 5 5 4 4 3 2 2 2 2 2 2 3 3 2 3 3 2 3 3 2 2 2 2 2 2 3 3 4 4 4 4 4
6 7 5 6 6 6 5 4 4 4 4 4 4 4 4 4 3 3 3 2 2 2 3 3 3 3 2 2 2 2 3 3 2 3 3 3 3 3 4 4 5 5 5 4
8 7 6 6 5 4 4 5 5 4 4 4 4 4 4 4 4 3 3 2 2 3 3 3 3 3 3 2 3 3 3 2 2 2 2 2 2 2 3 4 6 6 6 5
7 6 6 5 4 4 5 5 4 4 4 5 4 3 3 3 4 3 3 3 3 4 4 3 2 2 3 2 2 3 3 3 3 2 3 3 2 2 2 2 3 4 5 6
5 3 4 4 5 5 4 4 3 3 3 3 3 3 2 3 3 3 3 3 3 3 3 3 2 3 3 2 2 3 3 3 3 3 3 3 3 3 3 2 2 2 3 5
5 5 5 4 3 3 3 2 2 3 3 3 2 2 2 3 4 4 3 3 2 2 2 2 2 3 2 1 2 2 2 2 3 3 2 2 3 2 2 3 2 2 2 2
4 3 3 3 4 4 3 3 3 4 4 3 3 3 3 3 3 3 3 2 2 2 2 2 3 3 2 1 2 2 2 4 3 2 2 2 2 2 2 2 2 3 3 2
3 4 4 5 5 5 4 4 4 4 4 3 3 3 2 2 2 2 2 2 2 2 2 2 3 3 2 2 2 2 2 2 3 2 2 2 2 3 2 2 3 3 3 3
5 6 5 5 5 5 4 3 3 3 3 3 2 2 2 2 2 3 2 2 1 2 2 3 3 2 2 2 2 2 2 2 2 2 2 2 2 2 2 2 3 3 2 2
3 3 3 3 3 3 3 3 3 3 2 1 1 2 2 2 2 2 1 1 1 3 3 3 3 1 1 2 2 1 2 2 2 2 2 3 2 2 2 2 2 2 2 2
2 2 2 2 1 1 2 2 2 2 2 1 1 1 2 2 1 1 1 2 2 3 3 3 2 1 2 2 1 1 2 2 2 2 2 2 2 2 2 2 2 2 2 2
2 1 1 1 2 2 2 1 1 1 1 1 2 2 2 2 2 1 1 2 3 2 2 3 1 1 1 1 1 1 2 2 2 2 2 2 2 2 2 2 2 2 2 2
1 1 1 1 2 2 2 1 1 1 1 1 1 1 1 1 2 2 2 2 2 3 1 1 1 1 1 1 1 1 1 1 1 1 2 2 2 2 2 2 2 2 2 1
2 1 2 2 2 2 2 1 1 1 1 2 2 2 2 2 1 1 2 1 1 2 1 1 1 2 1 1 1 1 1 1 1 1 2 2 2 2 2 2 2 1 1 1
1 1 2 2 1 0 1 2 1 1 1 1 1 1 1 1 1 1 1 2 2 2 1 1 1 1 1 1 1 1 1 1 1 1 1 1 1 1 2 2 1 1 1 2
1 1 1 1 1 1 1 1 1 1 1 1 1 1 1 1 1 1 1 1 1 1 1 1 1 1 1 1 1 1 1 1 1 1 1 1 1 1 1 1 1 1 2 2
1 1 1 2 1 1 1 1 0 1 0 0 1 1 1 1 0 0 0 1 1 1 1 1 1 1 1 0 0 1 1 1 1 1 1 1 1 1 1 2 2 2 2 2
1 1 1 1 1 1 0 0 1 1 1 0 0 1 1 1 1 1 1 1 1 1 1 1 1 1 1 0 0 0 0 0 1 1 1 1 1 1 2 2 2 2 2 2
Wind_Direction
252 263 248 244 249 237 225 224 229 252 258 267 264 261 267 274 272 270 263 257 251 240 230 225 235 251 249 252 252 222 196 199 208 201 193 190 192 203 203 199 200 194 194 196
274 273 266 266 256 242 239 236 239 257 268 267 266 255 261 259 254 258 255 254 254 247 229 226 231 233 243 255 248 221 207 208 207 195 189 191 201 202 195 196 196 195 201 201
271 297 327 273 244 224 229 229 218 239 254 272 275 254 243 239 239 237 243 251 252 248 240 236 235 229 233 245 246 225 215 208 201 193 198 200 191 185 194 198 194 205 216 209
253 31 245 252 242 215 227 248 239 246 263 261 257 262 246 228 226 236 245 246 247 245 252 257 247 239 235 240 230 225 217 210 203 192 193 192 186 194 202 200 197 206 216 215
191 235 271 285 260 204 218 260 241 243 266 274 277 299 274 248 231 235 238 237 238 238 238 242 244 241 237 246 235 225 221 218 208 193 189 192 207 216 208 197 207 210 210 213
195 217 242 256 261 232 165 275 254 238 255 271 251 255 262 260 263 253 242 228 232 241 237 237 242 228 225 238 235 234 227 220 209 192 188 200 211 214 202 199 211 209 215 222
214 233 258 257 250 119 176 255 264 244 248 243 228 238 264 276 270 247 239 239 236 231 239 246 240 214 224 231 237 244 234 211 200 194 193 197 197 199 188 192 197 210 219 235
193 218 250 238 158 192 230 261 263 258 251 246 255 267 275 267 260 250 247 250 241 247 266 266 234 206 223 236 240 233 212 205 203 201 199 186 180 194 189 185 195 215 224 246
201 220 242 201 212 233 228 247 257 257 265 255 263 270 275 267 252 244 245 253 256 244 267 282 254 212 225 244 228 206 200 211 211 202 197 187 186 194 193 192 202 219 222 239
240 257 259 253 255 270 256 250 262 261 261 254 258 264 270 266 258 252 256 260 263 248 255 280 278 244 232 237 210 190 201 215 208 194 204 202 204 203 207 210 214 222 226 234
249 268 285 268 248 253 265 271 278 281 267 253 254 267 266 263 261 253 260 267 249 240 247 264 272 266 248 221 194 198 208 211 211 205 206 213 219 220 222 224 220 223 225 222
236 234 224 248 250 243 252 267 267 275 286 281 259 260 266 264 268 263 260 264 254 257 258 264 268 274 272 231 193 193 211 217 215 213 212 212 221 260 260 244 239 237 235 230
240 252 244 255 265 256 251 259 266 266 266 278 282 258 258 273 277 272 270 260 256 260 262 260 260 271 282 249 204 199 211 220 219 215 213 213 216 224 254 278 249 236 231 233
248 251 260 257 263 267 261 264 268 275 276 271 273 273 273 284 286 278 270 267 264 262 258 254 253 271 280 255 217 214 216 220 220 218 215 216 219 223 226 228 243 267 254 235
257 247 245 256 264 273 271 270 282 288 289 294 278 267 273 274 275 280 283 283 281 268 264 260 265 277 285 253 218 217 217 217 217 215 216 217 218 218 220 222 229 250 269 247
267 268 254 246 253 265 276 274 270 272 275 278 280 278 274 267 269 282 287 273 252 260 271 267 267 274 274 230 217 227 229 221 213 204 203 208 214 217 222 221 225 233 235 235
235 251 252 262 262 266 267 264 254 257 265 267 269 278 283 284 292 292 292 288 263 258 267 267 272 281 269 230 214 222 225 217 212 209 210 213 217 221 223 222 228 239 243 238
231 234 236 239 245 257 268 268 259 260 266 265 264 264 260 253 259 273 289 308 314 307 293 276 274 275 261 241 223 219 210 206 207 208 214 218 221 218 215 216 225 235 249 246
246 245 248 251 245 240 250 257 260 264 270 256 247 255 263 260 255 265 285 299 294 293 298 290 289 283 265 260 242 205 197 197 207 214 214 216 219 216 213 214 224 228 229 230
268 273 276 289 284 260 256 259 262 270 271 250 241 264 281 284 275 272 274 271 263 262 276 288 286 272 267 258 245 196 193 194 199 202 202 203 204 208 209 218 220 224 231 231
284 292 296 293 304 301 278 262 245 262 272 231 218 239 257 279 280 261 252 284 291 279 274 286 292 267 256 245 230 185 185 191 198 197 199 201 197 199 205 215 225 234 238 240
290 296 297 299 301 300 298 286 260 252 255 255 243 235 245 272 287 291 271 253 271 300 306 277 276 271 270 272 147 151 160 173 189 193 194 193 193 198 207 216 225 239 238 231
277 275 273 277 274 280 306 312 280 239 234 238 229 226 232 248 251 251 290 294 278 298 316 271 272 282 308 86 111 128 155 174 193 200 198 199 200 202 206 213 222 229 227 226
267 276 279 290 300 303 310 309 313 294 260 262 255 238 225 262 307 292 267 287 309 316 322 290 301 338 57 81 116 138 164 186 203 203 194 193 195 202 206 207 215 227 227 225
269 278 285 271 264 259 265 295 346 8 20 360 337 333 313 261 257 288 302 292 305 344 346 332 360 11 41 73 128 157 180 200 201 194 187 188 198 209 215 218 223 226 227 230
290 281 270 262 259 257 249 239 263 281 295 349 345 357 12 16 25 335 330 338 350 5 13 4 358 6 32 52 141 175 187 208 207 177 184 202 209 211 213 215 217 226 230 230
8 356 353 356 346 322 278 236 232 259 256 216 321 345 13 27 35 33 29 22 19 13 12 10 8 12 16 57 95 115 131 148 163 176 191 205 215 218 223 221 229 229 225 223
Height
1477 1473 1473 1472 1471 1471 1472 1471 1472 1463 1460 1452 1451 1451 1450 1449 1448 1448 1448 1447 1447 1447 1448 1448 1448 1448 1448 1448 1449 1449 1449 1450 1451 1452 1454 1455 1456 1458 1459 1460 1460 1462 1463 1464
1476 1471 1471 1469 1466 1466 1465 1464 1463 1459 1455 1448 1448 1448 1448 1447 1446 1446 1446 1445 1445 1445 1445 1445 1445 1445 1446 1446 1446 1446 1446 1447 1448 1449 1450 1452 1453 1454 1455 1456 1457 1458 1459 1460
1478 1474 1472 1469 1460 1459 1458 1456 1456 1455 1448 1445 1446 1445 1444 1443 1443 1443 1443 1444 1444 1443 1443 1443 1443 1443 1442 1443 1443 1443 1443 1444 1445 1446 1447 1448 1450 1451 1452 1453 1454 1454 1455 1456
1480 1480 1477 1458 1451 1451 1452 1450 1449 1447 1444 1443 1442 1441 1440 1441 1441 1441 1441 1441 1441 1441 1441 1440 1440 1440 1440 1440 1440 1440 1440 1441 1442 1443 1444 1445 1446 1447 1448 1449 1450 1451 1452 1452
1480 1478 1469 1454 1449 1449 1450 1447 1444 1444 1442 1440 1439 1439 1438 1438 1438 1438 1438 1438 1438 1438 1438 1437 1437 1437 1437 1436 1437 1437 1437 1438 1439 1440 1441 1441 1443 1444 1445 1445 1446 1447 1448 1449
1478 1474 1468 1451 1445 1444 1447 1447 1440 1439 1439 1438 1438 1440 1436 1435 1435 1435 1435 1435 1435 1435 1434 1434 1434 1434 1434 1433 1433 1434 1434 1435 1436 1437 1437 1438 1439 1440 1441 1442 1443 1443 1444 1445
1473 1471 1459 1446 1443 1444 1451 1445 1437 1436 1435 1435 1435 1435 1433 1432 1432 1432 1432 1432 1432 1431 1431 1430 1430 1431 1430 1430 1430 1430 1431 1432 1433 1433 1434 1435 1436 1437 1437 1438 1439 1440 1440 1441
1468 1466 1457 1441 1442 1443 1440 1436 1435 1433 1432 1432 1431 1430 1429 1429 1428 1428 1428 1428 1428 1427 1427 1427 1427 1427 1427 1427 1427 1428 1428 1429 1429 1430 1431 1431 1432 1433 1434 1435 1435 1436 1436 1437
1451 1446 1438 1436 1436 1435 1434 1433 1432 1431 1430 1429 1428 1427 1426 1425 1425 1425 1425 1425 1425 1424 1424 1423 1423 1424 1423 1424 1424 1424 1425 1425 1426 1427 1427 1428 1429 1429 1430 1431 1432 1432 1432 1432
1444 1438 1434 1433 1432 1432 1432 1431 1429 1428 1427 1426 1424 1423 1423 1422 1421 1421 1421 1421 1421 1421 1420 1420 1420 1420 1420 1420 1421 1421 1421 1422 1422 1423 1424 1424 1425 1426 1426 1427 1427 1428 1428 1428
1439 1434 1431 1429 1429 1429 1428 1427 1426 1425 1424 1423 1422 1420 1419 1418 1418 1417 1417 1417 1417 1417 1416 1416 1416 1416 1417 1417 1417 1417 1418 1418 1419 1419 1420 1421 1421 1422 1423 1423 1424 1424 1425 1425
1432 1428 1428 1426 1425 1425 1424 1423 1422 1421 1420 1419 1419 1417 1416 1415 1414 1414 1413 1413 1413 1413 1412 1412 1413 1413 1413 1414 1414 1414 1414 1415 1415 1416 1416 1417 1418 1418 1419 1420 1420 1421 1421 1422
1424 1423 1423 1422 1422 1421 1420 1420 1419 1418 1417 1415 1415 1414 1413 1412 1411 1410 1410 1409 1409 1409 1409 1409 1409 1409 1409 1410 1410 1410 1410 1411 1412 1412 1413 1413 1414 1414 1415 1416 1417 1417 1418 1418
1420 1420 1419 1418 1418 1417 1416 1416 1415 1414 1413 1412 1411 1410 1410 1408 1408 1407 1406 1406 1406 1405 1405 1405 1405 1405 1405 1406 1406 1407 1407 1408 1408 1409 1409 1410 1410 1411 1412 1412 1412 1412 1414 1414
1416 1416 1416 1415 1414 1413 1412 1412 1411 1410 1409 1409 1408 1407 1406 1405 1404 1404 1403 1403 1403 1402 1401 1401 1401 1401 1402 1402 1402 1403 1403 1404 1404 1405 1406 1407 1407 1408 1408 1409 1409 1409 1410 1410
1412 1412 1412 1411 1410 1409 1409 1408 1407 1406 1406 1405 1404 1404 1403 1402 1401 1401 1400 1400 1399 1399 1398 1398 1398 1398 1398 1398 1399 1399 1400 1400 1401 1402 1402 1403 1404 1404 1405 1405 1405 1406 1406 1406
1409 1408 1408 1408 1407 1406 1405 1405 1404 1403 1402 1402 1401 1400 1400 1399 1398 1397 1397 1397 1397 1396 1396 1395 1395 1395 1395 1395 1395 1396 1396 1397 1398 1398 1399 1400 1400 1401 1401 1402 1402 1402 1402 1403
1406 1406 1405 1405 1404 1403 1402 1401 1401 1400 1399 1399 1398 1398 1397 1396 1395 1395 1394 1394 1394 1394 1393 1393 1392 1392 1392 1392 1392 1392 1393 1393 1394 1395 1396 1396 1397 1398 1398 1398 1399 1399 1399 1400
1403 1403 1403 1402 1401 1400 1399 1398 1398 1397 1397 1396 1396 1395 1394 1394 1393 1393 1392 1392 1391 1391 1390 1390 1390 1389 1389 1389 1389 1390 1390 1390 1391 1392 1392 1393 1394 1394 1395 1395 1395 1396 1396 1397
1401 1400 1400 1399 1399 1398 1397 1396 1396 1395 1394 1394 1393 1393 1392 1391 1391 1390 1390 1390 1389 1389 1388 1388 1387 1387 1387 1387 1387 1387 1387 1388 1388 1388 1389 1389 1390 1391 1391 1392 1392 1393 1393 1394
1398 1398 1397 1397 1396 1396 1395 1394 1393 1393 1392 1391 1391 1390 1389 1389 1389 1388 1388 1387 1387 1387 1386 1386 1385 1385 1385 1385 1385 1385 1385 1385 1385 1386 1386 1386 1387 1388 1389 1389 1390 1390 1390 1391
1396 1396 1395 1394 1394 1393 1393 1392 1391 1390 1390 1389 1388 1388 1387 1387 1387 1386 1386 1386 1385 1385 1384 1384 1383 1383 1383 1383 1382 1382 1382 1383 1383 1383 1383 1384 1385 1385 1386 1386 1387 1387 1388 1388
1394 1394 1393 1392 1392 1391 1390 1390 1389 1388 1387 1387 1386 1386 1385 1385 1385 1384 1384 1384 1384 1383 1382 1382 1382 1382 1381 1381 1381 1380 1380 1380 1380 1381 1381 1382 1382 1383 1383 1384 1384 1385 1385 1386
1392 1392 1391 1391 1390 1389 1388 1388 1387 1386 1386 1385 1385 1384 1384 1383 1383 1383 1383 1382 1382 1382 1381 1381 1381 1380 1380 1379 1379 1379 1378 1378 1378 1379 1379 1379 1380 1380 1381 1381 1382 1383 1383 1384
1390 1389 1389 1388 1388 1387 1386 1386 1385 1384 1384 1383 1383 1383 1382 1382 1382 1381 1381 1381 1380 1380 1380 1379 1379 1379 1378 1378 1377 1377 1377 1377 1377 1377 1377 1377 1378 1378 1379 1379 1380 1381 1381 1382
1388 1388 1387 1387 1386 1386 1385 1384 1383 1383 1382 1382 1381 1381 1381 1381 1380 1380 1380 1379 1379 1379 1378 1378 1377 1377 1377 1376 1376 1376 1376 1376 1376 1376 1376 1376 1376 1377 1377 1378 1378 1379 1379 1380
1386 1386 1386 1385 1385 1384 1384 1383 1382 1382 1381 1381 1380 1380 1379 1379 1379 1379 1378 1378 1378 1377 1377 1376 1376 1376 1376 1375 1375 1375 1375 1375 1375 1375 1375 1375 1375 1375 1376 1376 1377 1377 1377 1378